Johnstown, PA

1:09 PM EST on February 22, 2017 (GMT -0500)
Johnstown-Cambria County

Weather History for KJST - September, 2014

Change the Weather History Date:

Tuesday, September 30, 2014

  Actual Average Record
Temperature  
Mean Temperature 65 °F 54 °F  
Max Temperature 75 °F 63 °F 92 °F (1953)
Min Temperature 55 °F 45 °F 30 °F (1942)
Degree Days  
Heating Degree Days 0 11  
Month to date heating degree days 150 180  
Since 1 July heating degree days 233 218  
Cooling Degree Days 0 0  
Month to date cooling degree days 46 22  
Year to date cooling degree days 341 382  
Growing Degree Days 15 (Base 50)    
Moisture  
Dew Point 52 °F    
Average Humidity 64    
Maximum Humidity 86    
Minimum Humidity 41    
Precipitation  
Precipitation T in 0.12 in 2.73 in (2010)
Month to date precipitation 1.20  
Year to date precipitation 27.10  
Sea Level Pressure  
Sea Level Pressure 29.92 in    
Wind  
Wind Speed 6 mph (SW)    
Max Wind Speed 21 mph    
Max Gust Speed 24 mph    
Visibility 10 miles    
Events      
T = Trace of Precipitation, MM = Missing Value Source: NWS Daily Summary

Daily Weather History Graph

Daily Weather History Graph

Search for Another Location

Airport or City:

Trip Planner

Search our weather history database for the weather conditions in past years. The results will help you decide how hot, cold, wet, or windy it might be!

Date:

Astronomy

Sep. 30, 2014 Rise Set
Actual Time 7:10 AM EDT 6:59 PM EDT
Civil Twilight 6:43 AM EDT 7:26 PM EDT
Nautical Twilight 6:11 AM EDT 7:57 PM EDT
Astronomical Twilight 5:40 AM EDT 8:29 PM EDT
Moon 1:17 PM EDT (9/30) 11:27 PM EDT (9/30)
Length of Visible Light 12h 42m
Length of Day
11h 48m
Waxing Crescent, 38% of the Moon is Illuminated
Sep 30
Waxing Crescent
Oct 1
First Quarter
Oct 8
Full
Oct 15
Last Quarter
Oct 23
New

Hourly Weather History & Observations

Time (EDT) Temp. Dew Point Humidity Pressure Visibility Wind Dir Wind Speed Gust Speed Precip Events Conditions
12:54 AM 61.0 °F 52.0 °F 72% 29.93 in 10.0 mi SSW 4.6 mph - N/A   Partly Cloudy
1:54 AM 61.0 °F 52.0 °F 72% 29.92 in 10.0 mi SSW 5.8 mph - N/A   Clear
2:54 AM 60.1 °F 51.1 °F 72% 29.91 in 10.0 mi SSW 3.5 mph - N/A   Partly Cloudy
3:54 AM 57.9 °F 51.1 °F 78% 29.90 in 10.0 mi SSW 4.6 mph - N/A   Clear
4:54 AM 59.0 °F 53.1 °F 81% 29.90 in 10.0 mi SSW 6.9 mph - N/A   Clear
5:54 AM 57.9 °F 53.1 °F 84% 29.90 in 10.0 mi SSW 5.8 mph - N/A   Clear
6:54 AM 57.0 °F 52.0 °F 83% 29.92 in 10.0 mi SW 5.8 mph - N/A   Clear
7:54 AM 57.9 °F 54.0 °F 87% 29.93 in 10.0 mi SW 8.1 mph - N/A   Clear
8:54 AM 61.0 °F 55.0 °F 81% 29.93 in 10.0 mi SSW 5.8 mph - N/A   Clear
9:54 AM 64.0 °F 57.0 °F 78% 29.93 in 10.0 mi SSW 5.8 mph - N/A   Clear
10:54 AM 68.0 °F 57.0 °F 68% 29.92 in 10.0 mi West 4.6 mph - N/A   Partly Cloudy
11:54 AM 70.0 °F 55.0 °F 59% 29.91 in 10.0 mi Variable 6.9 mph - N/A   Mostly Cloudy
12:54 PM 72.0 °F 52.0 °F 49% 29.90 in 10.0 mi South 5.8 mph - N/A   Scattered Clouds
1:54 PM 73.9 °F 48.9 °F 41% 29.88 in 10.0 mi WSW 15.0 mph - N/A   Scattered Clouds
2:54 PM 71.1 °F 50.0 °F 47% 29.87 in 10.0 mi West 10.4 mph - N/A   Mostly Cloudy
3:54 PM 68.0 °F 54.0 °F 61% 29.89 in 10.0 mi NW 17.3 mph - N/A   Scattered Clouds
4:54 PM 66.0 °F 52.0 °F 60% 29.88 in 10.0 mi West 9.2 mph - N/A   Mostly Cloudy
5:54 PM 62.1 °F 51.1 °F 67% 29.90 in 10.0 mi West 9.2 mph - 0.00 in   Mostly Cloudy
6:54 PM 62.1 °F 51.1 °F 67% 29.93 in 10.0 mi WNW 3.5 mph - N/A   Scattered Clouds
7:54 PM 59.0 °F 50.0 °F 72% 29.94 in 10.0 mi NE 3.5 mph - N/A   Clear
8:54 PM 59.0 °F 51.1 °F 75% 29.95 in 10.0 mi Calm Calm - N/A   Mostly Cloudy
9:54 PM 62.1 °F 52.0 °F 70% 29.96 in 10.0 mi South 3.5 mph - N/A   Mostly Cloudy
10:54 PM 57.0 °F 50.0 °F 77% 29.96 in 10.0 mi SW 4.6 mph - N/A   Mostly Cloudy
11:54 PM 57.0 °F 50.0 °F 77% 29.95 in 10.0 mi Calm Calm - N/A   Overcast